COSMOS 2564 (761)

Last updated on Thu Nov 21 2024 00:03:12 GMT+0000 (Coordinated Universal Time)

1 54377U 22161A 24325.33652661 .00000007 00000+0 00000+0 0 9991 2 54377 64.7373 211.7773 0008527 212.2317 147.7938 2.13102110 15406
UTC large
Height (km)
Speed (km/s)
/
Latitude / Longitude
Inclination (degrees)
Orbital Period (minutes)
Azimuth
Elevation
Range (km)
Doppler Factor

Next 0 passes for location: London (51.5072 / 0.1276)

Sorry there are no passes over London.